Temperature
8 8 7 7 7 7 7 8 8 10 9 10 9 8 7 6 6 5 4 4 4 4 4 4 4 4 5 5 5 5 5 5 5 5 5 5 5 5 5 5 5 5 5 5
7 7 7 7 7 7 7 8 8 8 9 10 9 7 7 6 5 5 5 4 4 4 4 4 4 5 5 5 5 5 5 5 5 5 5 5 5 5 5 5 5 5 5 5
8 7 7 8 8 8 7 7 8 8 9 9 8 7 7 6 6 5 5 5 4 4 5 5 4 4 4 5 4 4 4 5 4 4 4 4 4 4 4 4 4 4 4 4
7 7 8 10 7 7 7 7 7 8 8 8 8 7 6 6 6 5 5 5 5 5 5 5 4 4 4 4 4 4 4 4 4 4 4 4 4 4 4 4 4 4 4 4
6 8 9 9 7 7 7 8 8 7 7 7 6 6 6 6 6 6 5 5 5 5 5 4 4 4 4 4 4 4 4 4 4 4 4 4 4 4 3 3 4 3 3 3
6 7 9 10 7 6 7 9 8 7 7 6 5 8 9 6 6 6 5 5 5 5 4 4 4 4 4 4 4 4 4 4 4 3 3 3 3 3 3 3 3 3 3 3
6 7 9 9 6 6 8 10 8 6 6 5 6 8 7 6 6 6 6 5 5 5 4 4 4 4 4 4 4 3 3 3 3 3 3 3 3 3 3 2 2 2 2 2
6 6 8 7 6 7 9 7 6 6 6 5 6 6 6 6 6 6 5 5 5 4 4 4 4 4 4 3 3 3 3 3 3 3 3 3 3 3 2 2 2 2 2 2
7 9 8 6 7 7 7 6 6 6 6 6 5 6 6 6 6 5 5 5 5 4 4 4 4 4 3 3 3 3 3 3 3 3 2 2 2 2 2 2 1 1 1 1
5 7 7 6 6 7 7 7 7 6 6 6 6 6 6 6 5 5 5 5 4 4 4 4 4 3 3 3 3 3 3 3 2 2 2 2 2 1 1 1 1 1 0 0
5 7 6 6 7 7 7 7 7 7 6 6 6 6 6 6 5 5 5 5 4 4 3 3 3 3 3 3 2 2 2 2 2 2 2 1 1 1 1 1 0 0 -0 -0
8 8 8 8 8 7 7 7 7 6 6 6 6 5 5 5 5 5 5 4 4 4 3 3 3 3 2 2 2 2 2 2 1 1 1 1 1 1 1 0 0 -0 -0 -0
7 7 7 7 7 7 6 6 6 6 6 6 6 5 5 5 5 4 4 4 4 3 3 3 2 2 2 2 2 1 1 1 1 1 1 1 0 0 -0 -0 -0 -0 -0 -1
5 5 5 6 6 6 6 6 6 5 5 5 5 5 5 4 4 4 4 4 4 3 3 2 2 2 2 2 1 1 1 1 1 0 0 0 0 -0 -1 -1 -1 -1 -1 -1
5 5 5 5 5 5 5 5 5 5 5 5 5 5 5 4 4 4 4 3 3 3 3 2 2 2 2 1 1 1 1 0 0 0 -0 -0 -0 -1 -1 -1 -1 -1 -1 -1
4 4 4 4 4 4 4 4 4 4 4 5 5 5 4 4 4 4 3 3 3 3 3 2 2 2 1 1 1 0 0 0 -0 -0 -1 -1 -1 -1 -1 -1 -2 -2 -2 -2
3 3 3 3 4 4 4 4 4 4 4 4 4 4 4 4 3 3 3 3 3 3 2 2 2 1 1 1 0 0 -0 -0 -1 -1 -1 -1 -1 -1 -2 -2 -2 -2 -3 -3
3 4 4 4 4 4 4 4 4 4 4 4 4 4 4 3 3 3 3 3 2 2 2 2 1 1 1 0 -0 -0 -1 -1 -1 -1 -2 -2 -2 -2 -2 -2 -3 -3 -3 -3
4 4 4 4 3 3 3 4 4 4 4 4 3 3 3 3 3 3 3 2 2 2 2 2 1 1 0 -0 -0 -1 -1 -1 -2 -2 -2 -2 -2 -2 -2 -3 -3 -3 -3 -4
4 4 4 3 3 3 3 3 3 3 3 3 3 3 3 3 3 3 2 2 2 2 2 1 1 0 0 -0 -1 -1 -1 -2 -2 -2 -2 -2 -3 -3 -3 -3 -3 -4 -4 -4
4 4 4 3 3 3 3 3 3 3 3 3 3 3 3 3 2 2 2 2 2 1 1 1 0 0 -0 -1 -1 -1 -2 -2 -2 -3 -3 -3 -3 -3 -3 -4 -4 -4 -4 -4
4 4 4 3 3 3 3 3 3 3 3 2 2 2 2 2 2 2 2 2 1 1 1 0 -0 -0 -1 -1 -2 -2 -2 -2 -3 -3 -3 -3 -3 -4 -4 -4 -4 -4 -5 -5
4 4 3 3 3 3 3 3 2 2 2 2 2 2 2 2 1 1 1 1 1 0 0 -0 -1 -1 -1 -2 -2 -2 -2 -3 -3 -3 -3 -4 -4 -4 -4 -4 -5 -5 -5 -5
3 3 3 3 2 2 2 2 2 2 2 2 2 2 1 1 1 1 1 1 0 -0 -0 -1 -1 -1 -2 -2 -2 -3 -3 -3 -3 -3 -4 -4 -4 -4 -5 -5 -5 -5 -5 -5
3 3 2 2 2 2 2 1 1 1 1 1 1 1 1 0 0 0 0 0 -0 -1 -1 -1 -2 -2 -2 -3 -3 -3 -3 -3 -4 -4 -4 -4 -5 -5 -5 -5 -5 -5 -6 -6
2 2 2 2 1 1 1 1 1 1 0 0 0 0 0 -0 -0 -0 -0 -1 -1 -1 -2 -2 -2 -3 -3 -3 -3 -3 -4 -4 -4 -4 -4 -5 -5 -5 -5 -6 -6 -6 -6 -6
2 2 1 1 1 1 0 0 0 0 -0 -0 -0 -0 -1 -1 -1 -1 -1 -1 -1 -2 -2 -2 -3 -3 -3 -3 -4 -4 -4 -4 -4 -5 -5 -5 -5 -6 -6 -6 -6 -6 -6 -6
Wind_Speed
8 9 7 9 9 9 9 8 7 7 8 9 7 6 6 5 5 5 5 5 4 3 2 1 1 1 2 2 3 2 2 2 3 3 3 3 3 3 3 3 2 2 2 2
6 5 7 9 11 11 12 11 12 12 12 8 6 5 6 6 6 7 7 7 6 5 4 3 2 1 1 1 1 2 2 2 2 3 2 2 2 2 2 3 3 3 2 2
4 5 7 8 8 10 7 7 8 9 7 4 5 7 7 7 7 8 7 7 7 6 5 4 3 3 2 1 1 1 1 2 2 2 2 2 2 2 3 3 3 3 3 3
4 5 5 1 1 5 7 7 9 8 7 6 7 7 7 7 8 8 7 7 7 6 5 4 3 3 2 1 1 0 1 1 2 2 2 2 2 3 3 3 3 3 3 3
3 5 8 4 2 3 5 6 7 9 8 6 3 4 6 6 7 8 7 7 6 6 5 4 4 3 2 2 1 1 1 2 2 2 2 2 2 3 3 3 3 3 3 3
3 4 5 1 2 2 3 4 3 6 6 4 3 4 4 3 5 6 6 6 5 5 5 5 4 3 3 2 2 2 2 2 2 2 1 1 2 3 2 2 3 3 3 3
7 6 7 3 3 4 3 2 1 5 6 7 7 6 3 3 5 5 5 6 5 6 5 5 4 4 4 3 3 3 2 2 2 2 1 2 2 2 2 2 3 3 3 4
6 7 7 5 7 6 4 1 3 4 6 8 8 5 4 5 5 6 5 6 6 6 5 5 5 5 5 5 4 3 2 2 1 1 1 1 2 2 2 2 2 3 4 4
8 8 2 7 8 5 3 4 4 5 6 7 7 6 5 5 5 6 6 6 6 6 5 5 5 6 6 5 3 3 3 2 1 1 1 1 1 1 2 2 2 3 3 4
8 11 10 10 11 10 8 8 7 6 6 7 8 8 7 6 5 6 6 5 5 6 6 5 6 6 6 4 4 4 3 2 1 1 1 1 1 1 2 2 2 2 3 3
11 12 10 10 11 11 9 8 8 7 7 8 8 8 7 7 6 6 5 5 6 6 6 6 5 5 5 4 4 4 3 2 2 2 2 2 2 2 2 2 2 3 3 3
12 10 8 8 6 7 7 8 8 8 8 8 8 8 7 7 6 6 6 5 6 6 6 6 5 5 5 4 5 4 4 3 2 2 2 2 2 2 2 3 3 4 4 4
16 12 11 11 9 8 9 9 8 8 9 8 7 8 7 6 6 6 6 6 7 7 7 6 6 6 5 5 5 5 4 3 3 2 2 2 2 2 2 3 3 4 4 5
17 13 13 13 13 11 10 9 8 8 8 8 7 7 7 7 6 7 8 8 7 7 6 6 6 6 5 5 5 6 5 4 3 3 3 3 3 3 3 3 3 3 3 4
18 17 16 13 11 9 8 7 7 8 8 7 7 7 8 8 8 8 7 6 6 7 7 7 7 6 5 6 6 6 5 4 3 3 3 3 3 3 3 3 3 3 3 3
13 13 14 15 15 13 11 10 11 11 9 8 8 8 9 8 8 7 7 7 8 9 8 8 8 6 6 6 6 5 5 4 4 3 3 3 3 3 3 3 3 3 3 3
13 14 14 14 15 15 14 13 13 12 10 10 10 9 8 7 7 7 8 8 8 8 8 8 8 6 6 7 6 5 4 4 5 4 3 3 3 3 3 3 3 3 3 4
17 17 15 14 14 14 13 12 12 12 11 11 9 8 9 10 10 10 8 7 7 7 8 8 7 7 7 7 6 5 4 4 4 4 4 4 4 3 3 3 4 4 4 3
14 14 14 14 14 13 12 12 11 11 10 9 9 10 10 11 10 9 7 8 8 9 8 8 9 8 8 8 7 5 5 5 5 5 4 5 5 4 4 4 4 4 3 3
11 11 11 12 11 11 12 11 10 9 9 9 9 9 10 10 9 8 9 9 9 7 6 7 8 8 8 8 8 5 6 6 6 5 5 4 4 4 4 4 4 4 4 4
10 9 10 10 10 10 10 10 9 10 9 9 10 11 10 9 8 8 8 8 7 6 7 9 7 7 7 7 9 6 6 6 6 5 5 5 5 4 4 4 4 4 4 4
8 8 8 8 8 9 8 8 8 9 9 9 10 9 9 9 9 9 9 7 6 8 6 6 6 7 8 8 6 6 6 6 6 5 5 5 5 5 4 4 4 4 4 4
7 7 7 7 8 7 6 6 8 8 9 9 10 10 10 9 8 7 7 6 5 8 7 6 8 10 11 7 6 6 7 7 6 6 5 5 5 5 4 5 4 4 4 4
6 6 6 5 5 5 7 7 6 6 7 7 8 9 8 7 6 6 5 6 9 9 6 7 10 11 11 6 6 6 6 6 6 5 5 5 5 4 5 5 5 4 5 5
6 5 5 5 6 6 6 5 4 5 6 5 6 7 7 6 6 5 5 6 9 8 5 7 10 11 8 6 6 6 6 5 5 5 5 5 4 4 5 5 5 5 5 5
6 6 6 7 6 5 4 4 5 5 5 5 4 4 4 4 5 5 5 6 8 7 6 5 6 7 6 6 6 6 5 5 5 5 5 4 5 5 5 5 6 5 5 5
5 5 4 4 5 5 5 5 5 6 5 6 4 4 4 4 5 5 6 5 5 5 5 5 5 5 5 5 5 5 4 4 4 4 4 4 4 5 5 5 5 5 5 5
Wind_Direction
270 272 263 261 258 238 229 241 250 264 256 259 263 258 244 226 215 216 218 218 216 221 227 247 299 341 1 4 7 12 16 13 4 359 0 2 1 357 351 345 331 318 313 309
278 256 262 265 255 243 240 244 250 264 268 266 257 246 232 216 209 216 218 221 222 224 227 233 247 275 302 325 350 3 1 357 352 353 360 1 355 351 350 353 349 345 333 317
279 301 289 265 245 223 226 225 229 243 258 254 244 241 233 219 213 219 221 220 220 222 223 223 226 237 252 271 309 348 350 348 346 343 348 349 347 345 348 354 354 353 339 329
290 304 256 274 102 218 230 243 233 253 265 249 254 261 247 227 224 226 223 221 220 221 219 218 221 227 233 238 246 304 336 332 333 335 341 345 349 347 349 352 352 353 350 344
262 281 279 270 211 206 225 260 235 244 257 261 274 269 239 225 229 230 224 219 218 215 215 211 211 212 209 214 231 282 303 307 314 318 322 334 344 344 347 352 351 347 343 342
236 258 260 295 150 181 219 262 229 226 236 221 191 236 239 203 220 223 219 213 211 203 202 205 204 200 202 216 227 250 270 280 292 294 298 315 329 336 343 346 342 342 340 334
230 246 267 254 156 164 219 303 255 222 222 208 214 245 271 211 219 215 208 203 200 198 200 204 196 191 205 219 234 251 259 269 284 292 303 316 330 339 344 347 343 344 343 339
206 225 250 164 160 203 255 329 242 235 227 224 239 261 250 223 215 204 198 196 196 198 203 202 194 196 210 222 232 234 231 242 271 298 317 322 332 339 338 340 341 341 341 340
214 230 270 186 213 239 255 253 250 242 242 235 244 249 243 230 218 209 204 200 199 202 204 203 200 203 216 225 225 222 221 229 253 289 308 308 303 314 320 327 331 332 331 331
251 257 256 248 247 251 246 251 259 252 248 236 240 243 238 231 222 215 210 204 200 202 208 211 206 208 219 219 213 214 220 229 239 256 281 295 295 288 290 302 313 320 322 322
248 261 271 252 236 243 247 250 257 256 248 242 242 242 234 228 224 219 213 207 202 205 212 215 211 214 214 209 205 212 219 225 233 242 259 269 274 280 276 273 292 299 299 304
243 242 235 254 244 234 240 248 250 253 252 241 234 237 232 230 224 218 214 208 207 208 212 214 212 217 213 208 206 210 214 220 227 234 245 257 266 281 289 286 306 306 309 311
249 258 254 264 264 251 252 257 253 245 246 247 235 230 227 226 218 213 212 209 209 209 211 211 213 217 213 208 208 213 217 218 223 229 238 251 262 273 291 294 285 292 303 314
244 250 257 256 256 256 256 257 257 248 245 244 236 226 221 221 213 210 213 213 210 207 207 209 214 219 212 205 209 216 218 217 220 227 236 246 255 266 275 286 294 298 295 303
241 239 246 256 257 254 250 248 246 247 245 240 229 221 215 213 216 217 215 206 201 204 208 209 217 220 206 202 208 214 217 219 220 226 232 241 248 255 263 271 281 293 305 311
241 242 243 246 250 251 249 244 244 248 245 237 228 225 222 219 221 217 206 196 199 210 212 212 219 217 202 201 206 212 216 215 217 222 226 232 238 245 255 265 276 287 295 308
239 241 238 241 244 246 245 242 241 243 242 235 230 224 219 217 217 216 211 206 211 217 215 215 218 207 200 203 206 211 212 210 208 219 225 230 234 240 247 256 266 275 284 300
239 242 241 242 243 245 246 243 240 238 236 235 229 217 212 212 217 219 213 204 209 219 221 218 213 202 201 203 205 208 209 212 213 219 224 227 233 238 242 250 258 267 279 286
236 240 242 242 240 239 241 241 239 237 234 226 218 218 219 220 222 217 202 199 208 222 223 210 198 199 204 204 199 205 207 211 215 220 223 227 230 233 237 246 255 263 271 277
234 236 239 241 238 237 238 239 236 233 229 220 218 220 224 224 217 207 202 211 219 221 207 197 199 205 204 201 195 203 206 211 215 218 219 224 229 233 236 243 251 258 263 266
232 233 233 235 237 237 236 235 231 231 228 217 216 219 222 220 210 203 205 223 225 205 196 192 198 202 200 195 193 203 206 210 214 217 218 223 227 231 236 241 249 254 261 265
228 229 233 235 237 242 239 232 229 229 225 220 220 219 216 215 211 210 216 223 211 190 193 199 202 199 196 193 199 203 207 211 213 215 218 222 225 230 235 241 247 253 258 262
229 230 233 234 236 242 242 234 228 224 221 218 216 214 214 214 209 208 220 213 196 191 196 204 200 196 196 198 201 204 208 211 214 215 217 219 224 230 236 241 246 250 254 258
227 229 230 232 227 230 238 236 227 225 223 223 221 215 211 210 214 216 216 190 189 191 202 201 198 199 197 201 202 206 209 211 213 215 217 220 223 227 233 240 246 250 252 255
222 223 217 212 222 233 235 229 221 221 219 221 219 214 209 208 209 204 196 191 189 190 200 199 199 200 200 202 202 205 208 211 211 213 217 221 224 228 234 237 241 246 250 252
217 223 225 225 229 230 220 213 218 218 213 216 215 207 199 194 190 187 185 186 188 189 192 193 194 194 198 198 201 204 208 210 214 218 220 225 229 232 236 239 242 244 248 251
218 221 222 229 230 221 216 214 217 219 212 209 209 199 189 186 183 182 178 178 180 183 184 184 185 189 193 196 200 204 206 209 212 217 220 225 230 234 238 240 244 245 246 247
Height
1486 1485 1485 1483 1481 1481 1481 1476 1473 1463 1463 1461 1462 1464 1465 1465 1466 1466 1466 1466 1466 1465 1465 1465 1464 1464 1463 1462 1461 1460 1459 1458 1457 1456 1455 1454 1453 1452 1451 1450 1449 1448 1447 1447
1485 1483 1483 1481 1476 1475 1475 1473 1470 1466 1463 1459 1462 1463 1463 1463 1463 1463 1464 1464 1464 1464 1464 1463 1463 1463 1462 1461 1460 1459 1459 1458 1457 1455 1454 1453 1451 1450 1449 1447 1446 1445 1445 1444
1480 1481 1479 1470 1465 1468 1467 1466 1465 1463 1459 1459 1460 1460 1460 1460 1461 1460 1461 1461 1462 1462 1462 1462 1462 1461 1461 1460 1460 1459 1458 1457 1455 1454 1453 1451 1450 1448 1447 1445 1444 1443 1442 1441
1484 1480 1475 1461 1465 1465 1464 1462 1462 1460 1458 1458 1458 1458 1458 1458 1458 1458 1459 1459 1459 1460 1460 1460 1460 1460 1460 1459 1458 1457 1457 1456 1454 1453 1451 1450 1449 1447 1446 1444 1443 1441 1439 1438
1485 1476 1463 1459 1463 1464 1463 1458 1457 1457 1456 1457 1457 1456 1455 1454 1455 1456 1456 1457 1457 1457 1458 1458 1458 1458 1458 1457 1457 1456 1455 1454 1453 1452 1450 1449 1447 1446 1444 1443 1441 1439 1438 1436
1484 1478 1465 1455 1460 1462 1463 1454 1453 1454 1454 1455 1456 1453 1450 1451 1452 1453 1453 1454 1454 1455 1455 1456 1456 1456 1456 1455 1454 1454 1453 1452 1451 1450 1449 1447 1446 1444 1443 1441 1439 1438 1436 1434
1480 1475 1458 1456 1460 1462 1459 1449 1451 1451 1451 1452 1452 1450 1450 1449 1449 1450 1450 1451 1452 1452 1453 1453 1454 1454 1453 1453 1452 1452 1451 1450 1449 1448 1447 1446 1444 1443 1441 1439 1438 1436 1433 1432
1473 1471 1458 1455 1457 1456 1450 1449 1449 1448 1449 1449 1448 1447 1446 1446 1446 1447 1447 1448 1449 1449 1450 1450 1451 1451 1450 1450 1450 1450 1449 1448 1447 1446 1445 1444 1443 1441 1440 1438 1436 1434 1432 1430
1461 1453 1449 1450 1449 1448 1447 1447 1446 1446 1445 1445 1444 1444 1443 1443 1443 1444 1444 1445 1446 1446 1447 1447 1448 1448 1448 1448 1447 1447 1446 1446 1445 1444 1443 1442 1441 1439 1438 1436 1434 1432 1430 1428
1457 1447 1446 1446 1445 1444 1444 1443 1443 1442 1442 1442 1441 1440 1440 1440 1440 1441 1441 1442 1442 1443 1443 1444 1444 1444 1444 1444 1444 1444 1443 1443 1442 1442 1441 1440 1439 1437 1436 1434 1432 1430 1429 1426
1449 1442 1442 1439 1439 1439 1439 1439 1439 1438 1438 1438 1437 1437 1437 1437 1437 1437 1438 1438 1439 1439 1440 1440 1441 1441 1441 1441 1441 1440 1440 1440 1439 1439 1438 1437 1436 1435 1433 1432 1431 1429 1427 1425
1436 1434 1435 1433 1433 1434 1434 1434 1435 1434 1434 1433 1433 1433 1433 1433 1433 1434 1435 1435 1435 1436 1436 1437 1437 1437 1437 1437 1437 1437 1437 1436 1436 1435 1434 1434 1433 1432 1431 1430 1428 1427 1425 1424
1429 1429 1429 1428 1429 1429 1430 1429 1430 1429 1429 1429 1428 1428 1428 1429 1429 1430 1431 1431 1432 1432 1433 1433 1433 1433 1433 1434 1433 1433 1433 1433 1432 1432 1431 1430 1429 1428 1427 1426 1425 1424 1422 1421
1423 1425 1423 1422 1423 1423 1424 1424 1424 1424 1424 1424 1424 1424 1424 1424 1425 1425 1426 1427 1428 1428 1429 1429 1429 1429 1429 1429 1429 1429 1429 1429 1429 1428 1427 1427 1426 1425 1424 1423 1421 1420 1419 1417
1415 1417 1416 1416 1416 1416 1417 1418 1418 1418 1418 1418 1418 1418 1419 1419 1420 1421 1422 1423 1423 1424 1424 1425 1425 1425 1425 1425 1425 1425 1425 1425 1425 1424 1424 1423 1422 1421 1421 1419 1418 1416 1415 1413
1406 1408 1409 1409 1409 1409 1410 1411 1411 1411 1412 1412 1412 1413 1414 1414 1415 1416 1417 1418 1418 1419 1419 1420 1420 1421 1421 1421 1421 1421 1421 1421 1421 1420 1420 1419 1419 1418 1417 1416 1414 1413 1412 1410
1400 1399 1400 1400 1400 1401 1402 1403 1403 1404 1405 1405 1406 1407 1408 1409 1409 1410 1411 1412 1413 1414 1415 1415 1416 1416 1416 1417 1417 1417 1417 1417 1417 1416 1416 1415 1415 1414 1413 1412 1411 1410 1408 1407
1390 1390 1392 1392 1393 1393 1394 1395 1396 1397 1397 1398 1400 1401 1401 1402 1403 1404 1405 1407 1407 1408 1409 1410 1411 1411 1411 1412 1412 1412 1412 1412 1412 1412 1412 1411 1411 1410 1409 1408 1407 1406 1405 1404
1381 1382 1383 1384 1385 1386 1387 1387 1388 1390 1391 1392 1393 1394 1395 1396 1397 1398 1399 1400 1401 1401 1403 1404 1405 1405 1406 1406 1407 1407 1407 1407 1407 1407 1407 1407 1406 1405 1405 1404 1403 1402 1401 1399
1374 1375 1376 1376 1377 1378 1379 1380 1381 1382 1383 1385 1386 1387 1388 1389 1391 1392 1393 1393 1394 1396 1397 1398 1398 1399 1400 1401 1401 1402 1402 1402 1402 1402 1402 1402 1401 1401 1400 1399 1398 1397 1396 1395
1368 1369 1369 1369 1370 1371 1372 1373 1374 1375 1376 1378 1379 1380 1381 1383 1384 1385 1386 1387 1388 1390 1391 1391 1392 1393 1394 1395 1396 1396 1397 1397 1397 1397 1397 1397 1396 1396 1395 1395 1394 1393 1392 1391
1362 1363 1363 1364 1364 1365 1365 1367 1367 1368 1369 1370 1372 1373 1374 1375 1377 1378 1379 1381 1382 1384 1384 1385 1386 1387 1388 1389 1390 1391 1391 1391 1392 1392 1392 1392 1391 1391 1391 1390 1389 1388 1387 1386
1357 1358 1358 1359 1359 1359 1360 1361 1361 1362 1363 1364 1365 1366 1367 1368 1370 1371 1372 1375 1376 1377 1378 1379 1380 1382 1383 1384 1384 1385 1386 1386 1386 1386 1386 1386 1386 1386 1386 1386 1385 1384 1383 1382
1353 1353 1353 1354 1355 1354 1355 1355 1356 1356 1357 1358 1359 1360 1361 1362 1364 1366 1367 1369 1370 1372 1373 1374 1375 1376 1377 1378 1379 1380 1380 1381 1381 1381 1381 1381 1381 1381 1381 1381 1380 1379 1378 1377
1348 1348 1349 1349 1349 1349 1350 1350 1350 1351 1351 1352 1353 1354 1355 1357 1358 1360 1362 1363 1364 1366 1367 1368 1370 1371 1372 1372 1374 1374 1375 1375 1376 1376 1376 1376 1376 1376 1376 1375 1375 1374 1373 1372
1343 1343 1344 1344 1344 1344 1345 1345 1345 1345 1346 1346 1347 1348 1350 1351 1353 1355 1356 1357 1359 1360 1362 1363 1364 1365 1366 1368 1368 1369 1370 1370 1370 1370 1371 1371 1371 1371 1371 1370 1369 1369 1368 1367
1338 1338 1338 1338 1339 1339 1340 1340 1340 1340 1341 1342 1342 1344 1345 1346 1348 1349 1351 1352 1354 1355 1357 1358 1359 1360 1362 1363 1363 1364 1365 1365 1365 1366 1366 1366 1366 1366 1365 1365 1364 1363 1363 1362